• In Hungary
  • List of Countries
  • For 7 days
  • Water Temperature
  • Satellite Maps
  • Weather Map
  • News
  • Weather Widgets
  • user-avatar
    Login

    Hourly Weather Wlynkowko

    Today, 17 July, Tuesday

    Time Temperature Precipitation Wind Pressure Humidity
    00:00 +19°C° 0.2 mm 3 mps 756 mmHg 91%
    01:00 +19°C° 0.2 mm 3 mps 756 mmHg 93%
    02:00 +19°C° 0.3 mm 3 mps 756 mmHg 94%
    03:00 +19°C° 0.3 mm 3 mps 755 mmHg 94%
    04:00 +18°C° 0.3 mm 3 mps 755 mmHg 95%
    05:00 +19°C° 0.3 mm 3 mps 755 mmHg 94%
    06:00 +20°C° 0.3 mm 3 mps 755 mmHg 93%
    07:00 +20°C° 0.3 mm 4 mps 755 mmHg 93%
    08:00 +21°C° 0.4 mm 4 mps 755 mmHg 91%
    09:00 +21°C° 0.4 mm 4 mps 755 mmHg 90%
    10:00 +22°C° 0.4 mm 4 mps 755 mmHg 88%
    11:00 +22°C° 0.6 mm 5 mps 755 mmHg 89%
    12:00 +22°C° 0.6 mm 5 mps 755 mmHg 90%
    13:00 +21°C° 0.6 mm 5 mps 755 mmHg 90%
    14:00 +21°C° 0.5 mm 5 mps 755 mmHg 91%
    15:00 +21°C° 0.5 mm 5 mps 755 mmHg 92%
    16:00 +21°C° 0.5 mm 5 mps 754 mmHg 92%
    17:00 +20°C° 0.7 mm 5 mps 755 mmHg 93%
    18:00 +20°C° 0.7 mm 5 mps 755 mmHg 95%
    19:00 +20°C° 0.7 mm 4 mps 755 mmHg 96%
    20:00 +19°C° 1.2 mm 4 mps 755 mmHg 96%
    21:00 +19°C° 1.2 mm 4 mps 755 mmHg 97%
    22:00 +19°C° 1.2 mm 4 mps 755 mmHg 97%
    23:00 +19°C° 0.8 mm 4 mps 755 mmHg 97%

    Tomorrow, 18 July, Wednesday

    Time Temperature Precipitation Wind Pressure Humidity
    00:00 +19°C° 0.8 mm 4 mps 755 mmHg 98%
    01:00 +19°C° 0.8 mm 4 mps 755 mmHg 98%
    02:00 +19°C° 1 mm 4 mps 755 mmHg 98%
    03:00 +19°C° 1 mm 4 mps 755 mmHg 98%
    04:00 +19°C° 1 mm 4 mps 754 mmHg 98%
    05:00 +19°C° 0.7 mm 4 mps 755 mmHg 97%
    06:00 +19°C° 0.7 mm 3 mps 755 mmHg 96%
    07:00 +20°C° 0.7 mm 3 mps 755 mmHg 96%
    08:00 +20°C° 0.2 mm 4 mps 755 mmHg 94%
    09:00 +21°C° 0.2 mm 4 mps 755 mmHg 93%
    10:00 +21°C° 0.2 mm 4 mps 755 mmHg 91%
    11:00 +22°C° 0.1 mm 4 mps 755 mmHg 89%
    12:00 +22°C° 0.1 mm 4 mps 755 mmHg 86%
    13:00 +23°C° 0.1 mm 5 mps 756 mmHg 84%
    14:00 +23°C° 0.1 mm 4 mps 756 mmHg 83%
    15:00 +23°C° 0.1 mm 4 mps 756 mmHg 83%
    16:00 +23°C° 0.1 mm 4 mps 756 mmHg 83%
    17:00 +22°C° 0 mm 4 mps 756 mmHg 85%
    18:00 +21°C° 0 mm 4 mps 756 mmHg 88%
    19:00 +21°C° 0 mm 4 mps 756 mmHg 90%
    20:00 +20°C° 0.1 mm 4 mps 756 mmHg 92%
    21:00 +20°C° 0.1 mm 4 mps 757 mmHg 94%
    22:00 +19°C° 0.1 mm 4 mps 757 mmHg 96%
    23:00 +19°C° 0.4 mm 4 mps 757 mmHg 97%

    Day after tomorrow, 19 July, Thursday

    Time Temperature Precipitation Wind Pressure Humidity
    00:00 +19°C° 0.4 mm 3 mps 757 mmHg 97%
    01:00 +19°C° 0.4 mm 3 mps 756 mmHg 97%
    02:00 +19°C° 0.3 mm 3 mps 756 mmHg 97%
    03:00 +19°C° 0.3 mm 3 mps 756 mmHg 98%
    04:00 +19°C° 0.3 mm 3 mps 756 mmHg 98%
    05:00 +19°C° 0.8 mm 3 mps 757 mmHg 97%
    06:00 +19°C° 0.8 mm 3 mps 757 mmHg 96%
    07:00 +20°C° 0.8 mm 3 mps 757 mmHg 95%
    08:00 +20°C° 1 mm 3 mps 757 mmHg 95%
    09:00 +20°C° 1 mm 3 mps 757 mmHg 96%
    10:00 +20°C° 1 mm 3 mps 757 mmHg 96%
    11:00 +20°C° 0.5 mm 3 mps 757 mmHg 94%
    12:00 +20°C° 0.5 mm 3 mps 757 mmHg 93%
    13:00 +20°C° 0.5 mm 3 mps 758 mmHg 92%
    14:00 +21°C° 0 mm 3 mps 758 mmHg 88%
    15:00 +21°C° 0 mm 4 mps 758 mmHg 85%
    16:00 +22°C° 0 mm 4 mps 758 mmHg 81%
    17:00 +22°C° 0 mm 3 mps 758 mmHg 82%
    18:00 +21°C° 0 mm 3 mps 758 mmHg 84%
    19:00 +21°C° 0 mm 3 mps 758 mmHg 85%
    20:00 +20°C° 0 mm 3 mps 758 mmHg 88%
    21:00 +19°C° 0 mm 3 mps 758 mmHg 90%
    22:00 +18°C° 0 mm 3 mps 758 mmHg 93%
    23:00 +18°C° 0 mm 3 mps 758 mmHg 92%

    20 July, Friday

    Time Temperature Precipitation Wind Pressure Humidity
    00:00 +18°C° 0 mm 4 mps 758 mmHg 91%
    01:00 +17°C° 0 mm 4 mps 757 mmHg 90%
    02:00 +17°C° 0 mm 4 mps 757 mmHg 90%
    03:00 +17°C° 0 mm 4 mps 757 mmHg 91%
    04:00 +17°C° 0 mm 4 mps 757 mmHg 91%
    05:00 +18°C° 0 mm 4 mps 757 mmHg 86%
    06:00 +19°C° 0 mm 4 mps 757 mmHg 82%
    07:00 +21°C° 0 mm 4 mps 757 mmHg 77%
    08:00 +22°C° 0 mm 4 mps 757 mmHg 73%
    09:00 +23°C° 0 mm 5 mps 757 mmHg 69%
    10:00 +25°C° 0 mm 5 mps 757 mmHg 64%
    11:00 +25°C° 0 mm 5 mps 757 mmHg 63%
    12:00 +25°C° 0 mm 5 mps 757 mmHg 62%
    13:00 +24°C° 0 mm 6 mps 757 mmHg 61%
    14:00 +24°C° 0 mm 6 mps 757 mmHg 61%
    15:00 +23°C° 0 mm 6 mps 757 mmHg 60%
    16:00 +23°C° 0 mm 6 mps 757 mmHg 60%
    17:00 +22°C° 0 mm 5 mps 757 mmHg 64%
    18:00 +21°C° 0 mm 5 mps 756 mmHg 68%
    19:00 +20°C° 0 mm 5 mps 756 mmHg 71%
    20:00 +18°C° 0 mm 4 mps 756 mmHg 75%
    21:00 +17°C° 0 mm 4 mps 756 mmHg 80%
    22:00 +15°C° 0 mm 4 mps 756 mmHg 84%
    23:00 +15°C° 0 mm 4 mps 756 mmHg 86%

    21 July, Saturday

    Time Temperature Precipitation Wind Pressure Humidity
    00:00 +14°C° 0 mm 4 mps 756 mmHg 88%
    01:00 +14°C° 0 mm 4 mps 756 mmHg 90%
    02:00 +14°C° 0 mm 4 mps 756 mmHg 92%
    03:00 +14°C° 0 mm 4 mps 756 mmHg 93%
    04:00 +14°C° 0 mm 4 mps 755 mmHg 95%
    05:00 +17°C° 0 mm 4 mps 756 mmHg 89%
    06:00 +18°C° 0 mm 4 mps 756 mmHg 82%
    07:00 +20°C° 0 mm 4 mps 756 mmHg 76%
    08:00 +21°C° 0 mm 4 mps 756 mmHg 70%
    09:00 +22°C° 0 mm 4 mps 756 mmHg 64%
    10:00 +23°C° 0 mm 4 mps 756 mmHg 58%
    11:00 +23°C° 0 mm 4 mps 756 mmHg 56%
    12:00 +23°C° 0 mm 4 mps 756 mmHg 53%
    13:00 +25°C° 0 mm 4 mps 755 mmHg 51%
    14:00 +23°C° 0 mm 4 mps 755 mmHg 52%
    15:00 +24°C° 0 mm 3 mps 755 mmHg 52%
    16:00 +24°C° 0 mm 3 mps 755 mmHg 53%
    17:00 +22°C° 0 mm 3 mps 755 mmHg 59%
    18:00 +21°C° 0 mm 3 mps 755 mmHg 64%
    19:00 +20°C° 0 mm 2 mps 755 mmHg 70%
    20:00 +19°C° 0 mm 2 mps 755 mmHg 72%
    21:00 +18°C° 0 mm 2 mps 755 mmHg 74%
    22:00 +17°C° 0 mm 2 mps 755 mmHg 75%
    23:00 +17°C° 0 mm 2 mps 755 mmHg 77%

    22 July, Sunday

    Time Temperature Precipitation Wind Pressure Humidity
    00:00 +16°C° 0 mm 2 mps 755 mmHg 78%
    01:00 +16°C° 0 mm 2 mps 755 mmHg 79%
    02:00 +15°C° 0 mm 2 mps 755 mmHg 80%
    03:00 +15°C° 0 mm 2 mps 755 mmHg 82%
    04:00 +15°C° 0 mm 2 mps 755 mmHg 83%
    05:00 +16°C° 0 mm 2 mps 755 mmHg 78%
    06:00 +18°C° 0 mm 2 mps 755 mmHg 73%
    07:00 +20°C° 0 mm 2 mps 755 mmHg 69%
    08:00 +21°C° 0 mm 3 mps 755 mmHg 66%
    09:00 +22°C° 0 mm 3 mps 756 mmHg 63%
    10:00 +24°C° 0 mm 3 mps 756 mmHg 60%
    11:00 +24°C° 0.3 mm 3 mps 756 mmHg 65%
    12:00 +22°C° 0.3 mm 3 mps 756 mmHg 69%
    13:00 +22°C° 0.3 mm 3 mps 756 mmHg 74%
    14:00 +21°C° 0.1 mm 3 mps 756 mmHg 75%
    15:00 +21°C° 0.1 mm 3 mps 756 mmHg 76%
    16:00 +21°C° 0.1 mm 3 mps 756 mmHg 77%
    17:00 +20°C° 0 mm 4 mps 757 mmHg 78%
    18:00 +20°C° 0 mm 4 mps 757 mmHg 80%
    19:00 +19°C° 0 mm 4 mps 757 mmHg 82%
    20:00 +18°C° 0 mm 3 mps 757 mmHg 86%
    21:00 +17°C° 0 mm 3 mps 758 mmHg 89%
    22:00 +16°C° 0 mm 3 mps 758 mmHg 93%
    23:00 +14°C° 0 mm 3 mps 758 mmHg 93%
    Show more